Weather History for Fort Drum, NY

Change the Weather History Date:

Tuesday, November 6, 2012

  Actual Average Record
Temperature  
Mean Temperature 28 °F -  
Max Temperature 37 °F 45 °F 71 °F (2005)
Min Temperature 19 °F 29 °F 19 °F (2012)
Degree Days  
Heating Degree Days 37    
Moisture  
Dew Point 17 °F    
Average Humidity 69    
Maximum Humidity 92    
Minimum Humidity 39    
Precipitation  
Precipitation 0.00 in - - ()
Sea Level Pressure  
Sea Level Pressure 30.20 in    
Wind  
Wind Speed 3 mph (East)    
Max Wind Speed 8 mph    
Max Gust Speed -    
Visibility 10 miles    
Events      
Averages and records for this station are not official NWS values.
T = Trace of Precipitation, MM = Missing Value Source: NWS Daily Summary

Daily Weather History Graph

Daily Weather History Graph

Search for Another Location

Airport:

Trip Planner

Search our weather history database for the weather conditions in past years. The results will help you decide how hot, cold, wet, or windy it might be!

Date:

Astronomy

Nov. 06, 2012 Rise Set
Actual Time 6:46 AM EST 4:45 PM EST
Civil Twilight 6:16 AM EST 5:16 PM EST
Nautical Twilight 5:41 AM EST 5:50 PM EST
Astronomical Twilight 5:07 AM EST 6:24 PM EST
Moon 11:25 PM EST (11/6) 12:35 PM EST (11/6)
Length of Visible Light 11h 00m
Length of Day
9h 59m
Waning Gibbous, 53% of the Moon is Illuminated
Nov 6
Waning Gibbous
Nov 6
Last Quarter
Nov 13
New
Nov 20
First Quarter
Nov 28
Full

Hourly Weather History & Observations

Time (EST) Temp. Windchill Dew Point Humidity Pressure Visibility Wind Dir Wind Speed Gust Speed Precip Events Conditions
12:55 AM 22.5 °F - 20.1 °F 91% 30.20 in 10.0 mi Calm Calm - N/A   Clear
1:55 AM 21.6 °F - 19.6 °F 92% 30.21 in 10.0 mi Calm Calm - N/A   Clear
2:55 AM 20.5 °F - 17.6 °F 89% 30.21 in 10.0 mi Calm Calm - N/A   Clear
3:55 AM 20.1 °F 15.2 °F 18.0 °F 91% 30.20 in 10.0 mi SSE 3.5 mph - N/A   Clear
4:55 AM 19.2 °F 12.5 °F 16.3 °F 89% 30.21 in 10.0 mi South 4.6 mph - N/A   Clear
5:55 AM 21.0 °F - 18.3 °F 89% 30.21 in 10.0 mi Calm Calm - N/A   Overcast
6:55 AM 22.3 °F 13.9 °F 19.4 °F 89% 30.23 in 10.0 mi SE 6.9 mph - N/A   Overcast
7:55 AM 24.4 °F 18.6 °F 20.8 °F 86% 30.24 in 10.0 mi SSE 4.6 mph - N/A   Overcast
8:55 AM 27.9 °F 24.0 °F 22.1 °F 79% 30.23 in 10.0 mi ESE 3.5 mph - N/A   Partly Cloudy
9:55 AM 31.5 °F 25.8 °F 18.3 °F 58% 30.24 in 10.0 mi SE 5.8 mph - N/A   Clear
10:55 AM 34.3 °F 29.2 °F 14.5 °F 44% 30.25 in 10.0 mi Variable 5.8 mph - N/A   Clear
11:55 AM 35.1 °F - 14.7 °F 43% 30.22 in 10.0 mi Calm Calm - N/A   Clear
12:55 PM 36.3 °F - 15.1 °F 42% 30.20 in 10.0 mi Calm Calm - N/A   Clear
1:55 PM 37.6 °F 35.1 °F 15.3 °F 40% 30.19 in 10.0 mi NNE 3.5 mph - N/A   Clear
2:55 PM 37.6 °F - 14.7 °F 39% 30.18 in 10.0 mi Calm Calm - N/A   Clear
3:55 PM 37.2 °F 33.6 °F 14.5 °F 40% 30.17 in 10.0 mi NE 4.6 mph - N/A   Clear
4:55 PM 32.4 °F 25.3 °F 18.0 °F 55% 30.17 in 10.0 mi NE 8.1 mph - N/A   Clear
5:55 PM 29.1 °F 21.3 °F 18.5 °F 65% 30.17 in 10.0 mi NE 8.1 mph - N/A   Partly Cloudy
6:55 PM 28.6 °F 21.5 °F 17.6 °F 64% 30.18 in 10.0 mi NE 6.9 mph - N/A   Clear
7:55 PM 27.3 °F 19.9 °F 17.2 °F 66% 30.18 in 10.0 mi ENE 6.9 mph - N/A   Clear
8:55 PM 26.4 °F 19.8 °F 17.2 °F 68% 30.18 in 10.0 mi East 5.8 mph - N/A   Clear
9:55 PM 25.3 °F 19.7 °F 17.4 °F 72% 30.18 in 10.0 mi East 4.6 mph - N/A   Clear
10:55 PM 23.2 °F 17.2 °F 16.5 °F 76% 30.17 in 10.0 mi East 4.6 mph - N/A   Clear
11:55 PM 22.3 °F 16.1 °F 16.2 °F 77% 30.16 in 10.0 mi ESE 4.6 mph - N/A   Clear